Time,TemperatureF,DewpointF,PressureIn,WindDirection,WindDirectionDegrees,WindSpeedMPH,WindSpeedGustMPH,Humidity,HourlyPrecipIn,Conditions,Clouds,dailyrainin,SoftwareType,DateUTC
2013-02-14 00:00:00,41.3,33.0,29.84,WSW,240,4.0,10.0,72,0.00,,CLR,0.00,VWS V14.01,2013-02-14 06:00:00,
2013-02-14 00:02:00,40.5,33.9,29.84,SSW,203,3.0,5.0,77,0.00,,CLR,0.00,VWS V14.01,2013-02-14 06:02:00,
2013-02-14 00:07:00,40.5,33.5,29.84,WSW,246,0.0,6.0,76,0.00,,CLR,0.00,VWS V14.01,2013-02-14 06:07:00,
2013-02-14 00:12:00,40.4,33.5,29.84,SW,216,1.0,6.0,76,0.00,,CLR,0.00,VWS V14.01,2013-02-14 06:12:00,
2013-02-14 00:17:00,40.4,33.5,29.84,SW,215,4.0,9.0,76,0.00,,CLR,0.00,VWS V14.01,2013-02-14 06:17:00,
2013-02-14 00:22:00,40.8,33.5,29.84,SW,219,1.0,10.0,75,0.00,,CLR,0.00,VWS V14.01,2013-02-14 06:22:00,
2013-02-14 00:27:00,41.1,33.1,29.84,WSW,240,2.0,10.0,73,0.00,,CLR,0.00,VWS V14.01,2013-02-14 06:27:00,
2013-02-14 00:30:00,41.7,32.7,29.84,WSW,240,1.0,14.0,70,0.00,,CLR,0.00,VWS V14.01,2013-02-14 06:30:00,
2013-02-14 00:33:00,41.3,33.3,29.84,SW,219,3.0,10.0,73,0.00,,CLR,0.00,VWS V14.01,2013-02-14 06:33:00,
2013-02-14 00:38:00,41.3,33.3,29.84,SW,231,3.0,10.0,73,0.00,,CLR,0.00,VWS V14.01,2013-02-14 06:38:00,
2013-02-14 00:43:00,41.2,33.2,29.84,West,265,1.0,10.0,73,0.00,,CLR,0.00,VWS V14.01,2013-02-14 06:43:00,
2013-02-14 00:48:00,41.1,32.8,29.84,WSW,246,7.0,10.0,72,0.00,,CLR,0.00,VWS V14.01,2013-02-14 06:48:00,
2013-02-14 00:53:00,41.3,33.3,29.84,WSW,237,4.0,10.0,73,0.00,,CLR,0.00,VWS V14.01,2013-02-14 06:53:00,
2013-02-14 00:58:00,41.3,33.0,29.84,SW,236,6.0,10.0,72,0.00,,CLR,0.00,VWS V14.01,2013-02-14 06:58:00,
2013-02-14 01:00:00,42.4,32.6,29.84,WSW,253,4.0,11.0,68,0.00,,CLR,0.00,VWS V14.01,2013-02-14 07:00:00,
2013-02-14 01:03:00,41.4,33.1,29.84,SW,216,2.0,9.0,72,0.00,,CLR,0.00,VWS V14.01,2013-02-14 07:03:00,
2013-02-14 01:08:00,41.4,32.7,29.84,SW,235,2.0,14.0,71,0.00,,CLR,0.00,VWS V14.01,2013-02-14 07:08:00,
2013-02-14 01:13:00,41.5,32.8,29.84,SW,235,3.0,14.0,71,0.00,,CLR,0.00,VWS V14.01,2013-02-14 07:13:00,
2013-02-14 01:18:00,41.6,32.9,29.84,WSW,244,3.0,14.0,71,0.00,,CLR,0.00,VWS V14.01,2013-02-14 07:18:00,
2013-02-14 01:23:00,41.6,32.6,29.84,SW,235,5.0,14.0,70,0.00,,CLR,0.00,VWS V14.01,2013-02-14 07:23:00,
2013-02-14 01:28:00,41.7,32.7,29.84,SW,216,3.0,14.0,70,0.00,,CLR,0.00,VWS V14.01,2013-02-14 07:28:00,
2013-02-14 01:30:00,42.3,32.5,29.84,West,277,1.0,10.0,68,0.00,,CLR,0.00,VWS V14.01,2013-02-14 07:30:00,
2013-02-14 01:34:00,41.8,32.8,29.84,SSW,196,6.0,9.0,70,0.00,,CLR,0.00,VWS V14.01,2013-02-14 07:34:00,
2013-02-14 01:39:00,41.9,32.8,29.84,SW,222,3.0,9.0,70,0.00,,CLR,0.00,VWS V14.01,2013-02-14 07:39:00,
2013-02-14 01:44:00,42.1,32.7,29.84,WSW,237,5.0,11.0,69,0.00,,CLR,0.00,VWS V14.01,2013-02-14 07:44:00,
2013-02-14 01:49:00,42.2,32.8,29.84,WSW,257,5.0,11.0,69,0.00,,CLR,0.00,VWS V14.01,2013-02-14 07:49:00,
2013-02-14 01:54:00,42.2,32.4,29.84,SW,226,7.0,11.0,68,0.00,,CLR,0.00,VWS V14.01,2013-02-14 07:54:00,
2013-02-14 01:59:00,42.3,32.5,29.84,West,269,5.0,11.0,68,0.00,,CLR,0.00,VWS V14.01,2013-02-14 07:59:00,
2013-02-14 02:00:00,41.4,32.4,29.83,SW,228,4.0,9.0,70,0.00,,CLR,0.00,VWS V14.01,2013-02-14 08:00:00,
2013-02-14 02:04:00,42.5,32.7,29.84,SW,235,3.0,8.0,68,0.00,,CLR,0.00,VWS V14.01,2013-02-14 08:04:00,
2013-02-14 02:09:00,42.5,32.7,29.84,SW,226,3.0,10.0,68,0.00,,CLR,0.00,VWS V14.01,2013-02-14 08:09:00,
2013-02-14 02:14:00,42.6,32.4,29.84,WSW,247,4.0,10.0,67,0.00,,CLR,0.00,VWS V14.01,2013-02-14 08:14:00,
2013-02-14 02:19:00,42.6,32.4,29.84,WSW,239,3.0,10.0,67,0.00,,CLR,0.00,VWS V14.01,2013-02-14 08:19:00,
2013-02-14 02:24:00,42.5,32.7,29.84,WSW,242,1.0,10.0,68,0.00,,CLR,0.00,VWS V14.01,2013-02-14 08:24:00,
2013-02-14 02:30:00,42.3,32.5,29.84,SW,236,1.0,10.0,68,0.00,,CLR,0.00,VWS V14.01,2013-02-14 08:30:00,
2013-02-14 02:35:00,42.1,32.3,29.84,SSW,211,7.0,7.0,68,0.00,,CLR,0.00,VWS V14.01,2013-02-14 08:35:00,
2013-02-14 02:40:00,42.0,32.6,29.84,WSW,255,1.0,7.0,69,0.00,,CLR,0.00,VWS V14.01,2013-02-14 08:40:00,
2013-02-14 02:45:00,41.9,32.5,29.84,SSW,206,2.0,7.0,69,0.00,,CLR,0.00,VWS V14.01,2013-02-14 08:45:00,
2013-02-14 02:50:00,41.8,32.4,29.84,SW,227,1.0,9.0,69,0.00,,CLR,0.00,VWS V14.01,2013-02-14 08:50:00,
2013-02-14 02:55:00,41.6,32.6,29.84,WSW,246,5.0,9.0,70,0.00,,CLR,0.00,VWS V14.01,2013-02-14 08:55:00,
2013-02-14 03:00:00,41.4,32.4,29.83,WSW,251,5.0,5.0,70,0.00,,CLR,0.00,VWS V14.01,2013-02-14 09:00:00,
2013-02-14 03:06:00,41.2,32.2,29.83,SW,217,3.0,7.0,70,0.00,,CLR,0.00,VWS V14.01,2013-02-14 09:06:00,
2013-02-14 03:11:00,41.2,32.2,29.83,SW,218,5.0,9.0,70,0.00,,CLR,0.00,VWS V14.01,2013-02-14 09:11:00,
2013-02-14 03:16:00,41.2,32.2,29.83,SW,221,1.0,9.0,70,0.00,,CLR,0.00,VWS V14.01,2013-02-14 09:16:00,
2013-02-14 03:21:00,41.2,32.2,29.83,West,259,4.0,9.0,70,0.00,,CLR,0.00,VWS V14.01,2013-02-14 09:21:00,
2013-02-14 03:26:00,41.2,32.5,29.83,SW,228,3.0,9.0,71,0.00,,CLR,0.00,VWS V14.01,2013-02-14 09:26:00,
2013-02-14 03:30:00,39.9,32.0,29.83,WSW,240,1.0,5.0,73,0.00,,CLR,0.00,VWS V14.01,2013-02-14 09:30:00,
2013-02-14 03:31:00,41.0,32.3,29.84,West,280,1.0,4.0,71,0.00,,CLR,0.00,VWS V14.01,2013-02-14 09:31:00,
2013-02-14 03:36:00,40.9,32.2,29.83,WSW,248,3.0,4.0,71,0.00,,CLR,0.00,VWS V14.01,2013-02-14 09:36:00,
2013-02-14 03:41:00,40.7,32.0,29.84,West,271,1.0,4.0,71,0.00,,CLR,0.00,VWS V14.01,2013-02-14 09:41:00,
2013-02-14 03:46:00,40.5,32.2,29.83,WSW,254,0.0,4.0,72,0.00,,CLR,0.00,VWS V14.01,2013-02-14 09:46:00,
2013-02-14 03:51:00,40.3,32.0,29.84,WSW,257,2.0,5.0,72,0.00,,CLR,0.00,VWS V14.01,2013-02-14 09:51:00,
2013-02-14 03:57:00,40.1,32.2,29.84,WSW,250,1.0,5.0,73,0.00,,CLR,0.00,VWS V14.01,2013-02-14 09:57:00,
2013-02-14 04:00:00,38.7,31.5,29.83,WSW,257,3.0,6.0,75,0.00,,CLR,0.00,VWS V14.01,2013-02-14 10:00:00,
2013-02-14 04:02:00,39.8,31.9,29.83,SW,225,3.0,4.0,73,0.00,,CLR,0.00,VWS V14.01,2013-02-14 10:02:00,
2013-02-14 04:07:00,39.8,31.9,29.84,WSW,241,0.0,4.0,73,0.00,,CLR,0.00,VWS V14.01,2013-02-14 10:07:00,
2013-02-14 04:12:00,39.8,31.9,29.83,WSW,240,3.0,5.0,73,0.00,,CLR,0.00,VWS V14.01,2013-02-14 10:12:00,
2013-02-14 04:17:00,39.8,31.9,29.84,West,259,0.0,5.0,73,0.00,,CLR,0.00,VWS V14.01,2013-02-14 10:17:00,
2013-02-14 04:22:00,40.0,32.1,29.83,WSW,250,0.0,5.0,73,0.00,,CLR,0.00,VWS V14.01,2013-02-14 10:22:00,
2013-02-14 04:27:00,40.0,32.1,29.84,West,262,0.0,5.0,73,0.00,,CLR,0.00,VWS V14.01,2013-02-14 10:27:00,
2013-02-14 04:30:00,37.4,31.2,29.84,WSW,252,3.0,5.0,78,0.00,,CLR,0.00,VWS V14.01,2013-02-14 10:30:00,
2013-02-14 04:32:00,39.8,31.9,29.83,West,263,0.0,2.0,73,0.00,,CLR,0.00,VWS V14.01,2013-02-14 10:32:00,
2013-02-14 04:37:00,39.5,31.9,29.83,WSW,241,1.0,3.0,74,0.00,,CLR,0.00,VWS V14.01,2013-02-14 10:37:00,
2013-02-14 04:43:00,39.1,31.5,29.83,WSW,246,2.0,3.0,74,0.00,,CLR,0.00,VWS V14.01,2013-02-14 10:43:00,
2013-02-14 04:48:00,38.8,31.6,29.83,WSW,257,5.0,5.0,75,0.00,,CLR,0.00,VWS V14.01,2013-02-14 10:48:00,
2013-02-14 04:53:00,38.7,31.8,29.84,WSW,254,1.0,5.0,76,0.00,,CLR,0.00,VWS V14.01,2013-02-14 10:53:00,
2013-02-14 04:58:00,38.7,31.8,29.84,WSW,256,5.0,5.0,76,0.00,,CLR,0.00,VWS V14.01,2013-02-14 10:58:00,
2013-02-14 05:00:00,40.4,31.4,29.84,WSW,249,2.0,7.0,70,0.00,,CLR,0.00,VWS V14.01,2013-02-14 11:00:00,
2013-02-14 05:03:00,38.7,31.8,29.84,WSW,250,0.0,3.0,76,0.00,,CLR,0.00,VWS V14.01,2013-02-14 11:03:00,
2013-02-14 05:08:00,38.4,31.5,29.84,West,268,0.0,4.0,76,0.00,,CLR,0.00,VWS V14.01,2013-02-14 11:08:00,
2013-02-14 05:13:00,38.1,31.2,29.84,West,261,0.0,4.0,76,0.00,,CLR,0.00,VWS V14.01,2013-02-14 11:13:00,
2013-02-14 05:18:00,37.8,31.2,29.84,WSW,253,3.0,4.0,77,0.00,,CLR,0.00,VWS V14.01,2013-02-14 11:18:00,
2013-02-14 05:24:00,37.5,31.0,29.84,SW,234,1.0,4.0,77,0.00,,CLR,0.00,VWS V14.01,2013-02-14 11:24:00,
2013-02-14 05:29:00,37.4,31.2,29.84,SW,227,3.0,5.0,78,0.00,,CLR,0.00,VWS V14.01,2013-02-14 11:29:00,
2013-02-14 05:30:00,40.1,31.5,29.84,SSW,209,3.0,7.0,71,0.00,,CLR,0.00,VWS V14.01,2013-02-14 11:30:00,
2013-02-14 05:34:00,37.5,31.3,29.84,WSW,252,1.0,6.0,78,0.00,,CLR,0.00,VWS V14.01,2013-02-14 11:34:00,
2013-02-14 05:39:00,37.5,31.3,29.84,SW,226,4.0,6.0,78,0.00,,CLR,0.00,VWS V14.01,2013-02-14 11:39:00,
2013-02-14 05:44:00,38.0,31.1,29.84,SW,227,2.0,6.0,76,0.00,,CLR,0.00,VWS V14.01,2013-02-14 11:44:00,
2013-02-14 05:49:00,39.0,31.4,29.84,SSW,201,2.0,6.0,74,0.00,,CLR,0.00,VWS V14.01,2013-02-14 11:49:00,
2013-02-14 05:54:00,39.7,31.4,29.84,WSW,248,2.0,7.0,72,0.00,,CLR,0.00,VWS V14.01,2013-02-14 11:54:00,
2013-02-14 05:59:00,40.4,31.4,29.84,SW,235,1.0,7.0,70,0.00,,CLR,0.00,VWS V14.01,2013-02-14 11:59:00,
2013-02-14 06:00:00,40.7,30.6,29.85,WSW,244,4.0,8.0,67,0.00,,CLR,0.00,VWS V14.01,2013-02-14 12:00:00,
2013-02-14 06:04:00,40.4,31.4,29.84,WSW,250,2.0,3.0,70,0.00,,CLR,0.00,VWS V14.01,2013-02-14 12:04:00,
2013-02-14 06:09:00,40.3,31.3,29.84,WSW,254,2.0,7.0,70,0.00,,CLR,0.00,VWS V14.01,2013-02-14 12:09:00,
2013-02-14 06:14:00,40.1,31.1,29.84,West,277,3.0,7.0,70,0.00,,CLR,0.00,VWS V14.01,2013-02-14 12:14:00,
2013-02-14 06:20:00,40.1,31.5,29.84,SW,226,2.0,7.0,71,0.00,,CLR,0.00,VWS V14.01,2013-02-14 12:20:00,
2013-02-14 06:25:00,40.1,31.1,29.84,SW,224,3.0,7.0,70,0.00,,CLR,0.00,VWS V14.01,2013-02-14 12:25:00,
2013-02-14 06:30:00,40.1,31.5,29.84,SSW,209,3.0,7.0,71,0.00,,CLR,0.00,VWS V14.01,2013-02-14 12:30:00,
2013-02-14 06:35:00,40.2,31.2,29.84,WSW,245,5.0,8.0,70,0.00,,CLR,0.00,VWS V14.01,2013-02-14 12:35:00,
2013-02-14 06:40:00,40.5,31.1,29.84,SW,224,1.0,8.0,69,0.00,,CLR,0.00,VWS V14.01,2013-02-14 12:40:00,
2013-02-14 06:45:00,40.6,31.2,29.84,WSW,241,5.0,8.0,69,0.00,,CLR,0.00,VWS V14.01,2013-02-14 12:45:00,
2013-02-14 06:50:00,40.8,31.1,29.84,SW,235,2.0,8.0,68,0.00,,CLR,0.00,VWS V14.01,2013-02-14 12:50:00,
2013-02-14 06:55:00,40.8,30.7,29.84,SW,227,4.0,8.0,67,0.00,,CLR,0.00,VWS V14.01,2013-02-14 12:55:00,
2013-02-14 07:00:00,40.7,31.0,29.85,SW,235,4.0,6.0,68,0.00,,CLR,0.00,VWS V14.01,2013-02-14 13:00:00,
2013-02-14 07:06:00,40.6,30.5,29.85,SW,221,6.0,6.0,67,0.00,,CLR,0.00,VWS V14.01,2013-02-14 13:06:00,
2013-02-14 07:11:00,40.6,30.5,29.85,WSW,256,4.0,8.0,67,0.00,,CLR,0.00,VWS V14.01,2013-02-14 13:11:00,
2013-02-14 07:16:00,40.8,30.3,29.85,WSW,240,3.0,9.0,66,0.00,,CLR,0.00,VWS V14.01,2013-02-14 13:16:00,
2013-02-14 07:21:00,41.0,30.1,29.85,WSW,238,2.0,9.0,65,0.00,,CLR,0.00,VWS V14.01,2013-02-14 13:21:00,
2013-02-14 07:26:00,41.3,30.4,29.85,WNW,285,5.0,9.0,65,0.00,,CLR,0.00,VWS V14.01,2013-02-14 13:26:00,
2013-02-14 07:30:00,44.7,30.0,29.88,WNW,289,3.0,8.0,56,0.00,,CLR,0.00,VWS V14.01,2013-02-14 13:30:00,
2013-02-14 07:31:00,41.5,30.6,29.85,SSW,213,0.0,3.0,65,0.00,,CLR,0.00,VWS V14.01,2013-02-14 13:31:00,
2013-02-14 07:36:00,41.8,30.1,29.85,SW,215,2.0,9.0,63,0.00,,CLR,0.00,VWS V14.01,2013-02-14 13:36:00,
2013-02-14 07:41:00,42.2,29.7,29.86,SW,229,2.0,9.0,61,0.00,,CLR,0.00,VWS V14.01,2013-02-14 13:41:00,
2013-02-14 07:46:00,42.5,29.6,29.86,SW,234,3.0,9.0,60,0.00,,CLR,0.00,VWS V14.01,2013-02-14 13:46:00,
2013-02-14 07:51:00,42.9,29.6,29.86,WSW,250,4.0,9.0,59,0.00,,CLR,0.00,VWS V14.01,2013-02-14 13:51:00,
2013-02-14 07:56:00,43.3,29.1,29.87,WSW,252,3.0,9.0,57,0.00,,CLR,0.00,VWS V14.01,2013-02-14 13:56:00,
2013-02-14 08:00:00,46.2,29.6,29.89,West,263,3.0,8.0,52,0.00,,CLR,0.00,VWS V14.01,2013-02-14 14:00:00,
2013-02-14 08:01:00,43.8,29.6,29.87,WSW,242,3.0,7.0,57,0.00,,CLR,0.00,VWS V14.01,2013-02-14 14:01:00,
2013-02-14 08:07:00,44.0,29.3,29.87,SW,215,3.0,7.0,56,0.00,,CLR,0.00,VWS V14.01,2013-02-14 14:07:00,
2013-02-14 08:12:00,44.3,29.2,29.88,WNW,291,4.0,7.0,55,0.00,,CLR,0.00,VWS V14.01,2013-02-14 14:12:00,
2013-02-14 08:17:00,44.5,29.4,29.88,WSW,246,5.0,7.0,55,0.00,,CLR,0.00,VWS V14.01,2013-02-14 14:17:00,
2013-02-14 08:22:00,44.6,29.5,29.88,WSW,257,4.0,7.0,55,0.00,,CLR,0.00,VWS V14.01,2013-02-14 14:22:00,
2013-02-14 08:27:00,44.6,29.5,29.88,WSW,246,6.0,8.0,55,0.00,,CLR,0.00,VWS V14.01,2013-02-14 14:27:00,
2013-02-14 08:30:00,48.9,31.1,29.90,West,268,4.0,9.0,50,0.00,,CLR,0.00,VWS V14.01,2013-02-14 14:30:00,
2013-02-14 08:32:00,44.7,30.0,29.88,WNW,287,2.0,7.0,56,0.00,,CLR,0.00,VWS V14.01,2013-02-14 14:32:00,
2013-02-14 08:37:00,44.8,30.1,29.88,West,269,3.0,7.0,56,0.00,,CLR,0.00,VWS V14.01,2013-02-14 14:37:00,
2013-02-14 08:42:00,45.0,30.3,29.89,West,262,3.0,8.0,56,0.00,,CLR,0.00,VWS V14.01,2013-02-14 14:42:00,
2013-02-14 08:47:00,45.2,29.6,29.89,WSW,243,4.0,8.0,54,0.00,,CLR,0.00,VWS V14.01,2013-02-14 14:47:00,
2013-02-14 08:52:00,45.5,29.4,29.89,WSW,256,4.0,8.0,53,0.00,,CLR,0.00,VWS V14.01,2013-02-14 14:52:00,
2013-02-14 08:58:00,46.0,29.4,29.89,West,270,2.0,8.0,52,0.00,,CLR,0.00,VWS V14.01,2013-02-14 14:58:00,
2013-02-14 09:00:00,51.4,29.7,29.90,WNW,296,5.0,15.0,43,0.00,,CLR,0.00,VWS V14.01,2013-02-14 15:00:00,
2013-02-14 09:03:00,46.5,29.4,29.89,WSW,255,4.0,5.0,51,0.00,,CLR,0.00,VWS V14.01,2013-02-14 15:03:00,
2013-02-14 09:08:00,46.9,29.7,29.89,West,261,1.0,7.0,51,0.00,,CLR,0.00,VWS V14.01,2013-02-14 15:08:00,
2013-02-14 09:13:00,47.4,29.7,29.89,West,275,4.0,8.0,50,0.00,,CLR,0.00,VWS V14.01,2013-02-14 15:13:00,
2013-02-14 09:18:00,47.8,29.6,29.90,WSW,250,3.0,9.0,49,0.00,,CLR,0.00,VWS V14.01,2013-02-14 15:18:00,
2013-02-14 09:23:00,48.2,30.0,29.90,WNW,300,2.0,9.0,49,0.00,,CLR,0.00,VWS V14.01,2013-02-14 15:23:00,
2013-02-14 09:28:00,48.7,30.9,29.90,West,277,0.0,9.0,50,0.00,,CLR,0.00,VWS V14.01,2013-02-14 15:28:00,
2013-02-14 09:30:00,52.5,30.7,29.90,NW,307,7.0,14.0,43,0.00,,CLR,0.00,VWS V14.01,2013-02-14 15:30:00,
2013-02-14 09:33:00,49.3,30.5,29.90,WNW,302,2.0,7.0,48,0.00,,CLR,0.00,VWS V14.01,2013-02-14 15:33:00,
2013-02-14 09:38:00,49.6,31.7,29.90,West,265,2.0,7.0,50,0.00,,CLR,0.00,VWS V14.01,2013-02-14 15:38:00,
2013-02-14 09:43:00,50.0,30.0,29.90,NW,306,4.0,7.0,46,0.00,,CLR,0.00,VWS V14.01,2013-02-14 15:43:00,
2013-02-14 09:48:00,50.5,29.4,29.90,WNW,298,1.0,8.0,44,0.00,,CLR,0.00,VWS V14.01,2013-02-14 15:48:00,
2013-02-14 09:53:00,51.0,29.9,29.90,NW,322,6.0,8.0,44,0.00,,CLR,0.00,VWS V14.01,2013-02-14 15:53:00,
2013-02-14 09:59:00,51.3,29.6,29.90,WNW,292,4.0,15.0,43,0.00,,CLR,0.00,VWS V14.01,2013-02-14 15:59:00,
2013-02-14 10:00:00,52.5,32.3,29.90,WNW,290,9.0,10.0,46,0.00,,CLR,0.00,VWS V14.01,2013-02-14 16:00:00,
2013-02-14 10:04:00,51.6,29.9,29.90,WNW,286,5.0,9.0,43,0.00,,CLR,0.00,VWS V14.01,2013-02-14 16:04:00,
2013-02-14 10:09:00,51.8,30.0,29.90,NNW,328,7.0,14.0,43,0.00,,CLR,0.00,VWS V14.01,2013-02-14 16:09:00,
2013-02-14 10:14:00,52.0,30.2,29.90,West,274,4.0,14.0,43,0.00,,CLR,0.00,VWS V14.01,2013-02-14 16:14:00,
2013-02-14 10:19:00,52.2,30.4,29.90,NW,317,5.0,14.0,43,0.00,,CLR,0.00,VWS V14.01,2013-02-14 16:19:00,
2013-02-14 10:24:00,52.5,31.2,29.89,West,269,6.0,14.0,44,0.00,,CLR,0.00,VWS V14.01,2013-02-14 16:24:00,
2013-02-14 10:29:00,52.6,31.3,29.90,WNW,282,5.0,14.0,44,0.00,,CLR,0.00,VWS V14.01,2013-02-14 16:29:00,
2013-02-14 10:30:00,54.0,33.7,29.90,WNW,302,4.0,11.0,46,0.00,,CLR,0.00,VWS V14.01,2013-02-14 16:30:00,
2013-02-14 10:34:00,52.3,31.0,29.90,West,277,3.0,9.0,44,0.00,,CLR,0.00,VWS V14.01,2013-02-14 16:34:00,
2013-02-14 10:39:00,52.3,31.0,29.90,West,281,2.0,9.0,44,0.00,,CLR,0.00,VWS V14.01,2013-02-14 16:39:00,
2013-02-14 10:44:00,52.2,32.1,29.90,West,267,8.0,10.0,46,0.00,,CLR,0.00,VWS V14.01,2013-02-14 16:44:00,
2013-02-14 10:50:00,52.0,31.3,29.90,NW,305,5.0,10.0,45,0.00,,CLR,0.00,VWS V14.01,2013-02-14 16:50:00,
2013-02-14 10:55:00,52.3,32.2,29.90,West,270,7.0,10.0,46,0.00,,CLR,0.00,VWS V14.01,2013-02-14 16:55:00,
2013-02-14 11:00:00,52.5,32.3,29.90,WNW,290,9.0,10.0,46,0.00,,CLR,0.00,VWS V14.01,2013-02-14 17:00:00,
2013-02-14 11:05:00,52.9,32.7,29.91,West,268,6.0,10.0,46,0.00,,CLR,0.00,VWS V14.01,2013-02-14 17:05:00,
2013-02-14 11:10:00,53.3,33.6,29.90,WSW,256,4.0,10.0,47,0.00,,CLR,0.00,VWS V14.01,2013-02-14 17:10:00,
2013-02-14 11:15:00,53.4,32.6,29.90,West,267,6.0,10.0,45,0.00,,CLR,0.00,VWS V14.01,2013-02-14 17:15:00,
2013-02-14 11:20:00,53.5,32.7,29.90,West,271,4.0,11.0,45,0.00,,CLR,0.00,VWS V14.01,2013-02-14 17:20:00,
2013-02-14 11:25:00,53.7,33.4,29.90,West,276,6.0,11.0,46,0.00,,CLR,0.00,VWS V14.01,2013-02-14 17:25:00,
2013-02-14 11:30:00,54.1,32.7,29.90,WNW,284,6.0,6.0,44,0.00,,CLR,0.00,VWS V14.01,2013-02-14 17:30:00,
2013-02-14 11:35:00,54.6,32.6,29.90,West,267,6.0,8.0,43,0.00,,CLR,0.00,VWS V14.01,2013-02-14 17:35:00,
2013-02-14 11:40:00,54.8,33.3,29.90,WNW,296,4.0,9.0,44,0.00,,CLR,0.00,VWS V14.01,2013-02-14 17:40:00,
2013-02-14 11:46:00,55.5,32.8,29.90,WSW,248,5.0,9.0,42,0.00,,CLR,0.00,VWS V14.01,2013-02-14 17:46:00,
2013-02-14 11:51:00,55.8,33.7,29.89,WNW,292,4.0,9.0,43,0.00,,CLR,0.00,VWS V14.01,2013-02-14 17:51:00,
2013-02-14 11:56:00,56.4,33.0,29.89,WNW,297,4.0,9.0,41,0.00,,CLR,0.00,VWS V14.01,2013-02-14 17:56:00,
2013-02-14 12:00:00,58.5,33.7,29.87,NW,304,4.0,9.0,39,0.00,,CLR,0.00,VWS V14.01,2013-02-14 18:00:00,
2013-02-14 12:01:00,57.0,33.5,29.89,West,271,5.0,6.0,41,0.00,,CLR,0.00,VWS V14.01,2013-02-14 18:01:00,
2013-02-14 12:06:00,57.2,32.5,29.89,WNW,288,6.0,11.0,39,0.00,,CLR,0.00,VWS V14.01,2013-02-14 18:06:00,
2013-02-14 12:11:00,57.0,34.2,29.89,West,281,4.0,11.0,42,0.00,,CLR,0.00,VWS V14.01,2013-02-14 18:11:00,
2013-02-14 12:16:00,57.5,32.8,29.89,North,350,8.0,11.0,39,0.00,,CLR,0.00,VWS V14.01,2013-02-14 18:16:00,
2013-02-14 12:21:00,57.9,33.1,29.88,WSW,252,3.0,11.0,39,0.00,,CLR,0.00,VWS V14.01,2013-02-14 18:21:00,
2013-02-14 12:26:00,58.2,34.6,29.88,West,261,7.0,11.0,41,0.00,,CLR,0.00,VWS V14.01,2013-02-14 18:26:00,
2013-02-14 12:30:00,60.0,34.3,29.87,NW,309,2.0,13.0,38,0.00,,CLR,0.00,VWS V14.01,2013-02-14 18:30:00,
2013-02-14 12:31:00,58.1,32.7,29.88,West,281,8.0,8.0,38,0.00,,CLR,0.00,VWS V14.01,2013-02-14 18:31:00,
2013-02-14 12:37:00,58.2,33.4,29.88,West,269,4.0,8.0,39,0.00,,CLR,0.00,VWS V14.01,2013-02-14 18:37:00,
2013-02-14 12:42:00,58.3,33.5,29.88,WSW,254,6.0,8.0,39,0.00,,CLR,0.00,VWS V14.01,2013-02-14 18:42:00,
2013-02-14 12:47:00,58.1,33.3,29.88,West,267,3.0,8.0,39,0.00,,CLR,0.00,VWS V14.01,2013-02-14 18:47:00,
2013-02-14 12:52:00,58.0,33.8,29.88,WNW,283,6.0,9.0,40,0.00,,CLR,0.00,VWS V14.01,2013-02-14 18:52:00,
2013-02-14 12:57:00,58.2,33.4,29.87,WNW,290,2.0,9.0,39,0.00,,CLR,0.00,VWS V14.01,2013-02-14 18:57:00,
2013-02-14 13:00:00,60.5,34.8,29.87,NW,319,4.0,11.0,38,0.00,,CLR,0.00,VWS V14.01,2013-02-14 19:00:00,
2013-02-14 13:02:00,58.7,33.2,29.87,WNW,292,6.0,6.0,38,0.00,,CLR,0.00,VWS V14.01,2013-02-14 19:02:00,
2013-02-14 13:07:00,59.0,34.7,29.87,West,277,4.0,10.0,40,0.00,,CLR,0.00,VWS V14.01,2013-02-14 19:07:00,
2013-02-14 13:12:00,59.0,33.5,29.87,WNW,299,1.0,10.0,38,0.00,,CLR,0.00,VWS V14.01,2013-02-14 19:12:00,
2013-02-14 13:17:00,59.4,33.8,29.87,NW,312,5.0,10.0,38,0.00,,CLR,0.00,VWS V14.01,2013-02-14 19:17:00,
2013-02-14 13:22:00,59.9,35.5,29.87,West,277,4.0,10.0,40,0.00,,CLR,0.00,VWS V14.01,2013-02-14 19:22:00,
2013-02-14 13:27:00,60.1,33.8,29.87,NNW,327,4.0,13.0,37,0.00,,CLR,0.00,VWS V14.01,2013-02-14 19:27:00,
2013-02-14 13:30:00,59.8,34.8,29.87,NW,325,4.0,14.0,39,0.00,,CLR,0.00,VWS V14.01,2013-02-14 19:30:00,
2013-02-14 13:33:00,59.9,33.6,29.87,NNW,348,3.0,11.0,37,0.00,,CLR,0.00,VWS V14.01,2013-02-14 19:33:00,
2013-02-14 13:38:00,59.6,33.3,29.87,North,355,1.0,11.0,37,0.00,,CLR,0.00,VWS V14.01,2013-02-14 19:38:00,
2013-02-14 13:43:00,59.5,35.2,29.87,NW,305,5.0,11.0,40,0.00,,CLR,0.00,VWS V14.01,2013-02-14 19:43:00,
2013-02-14 13:48:00,59.8,34.2,29.87,NW,317,2.0,11.0,38,0.00,,CLR,0.00,VWS V14.01,2013-02-14 19:48:00,
2013-02-14 13:53:00,60.1,34.4,29.87,NW,306,4.0,11.0,38,0.00,,CLR,0.00,VWS V14.01,2013-02-14 19:53:00,
2013-02-14 13:58:00,60.5,34.8,29.87,WSW,255,6.0,11.0,38,0.00,,CLR,0.00,VWS V14.01,2013-02-14 19:58:00,
2013-02-14 14:00:00,59.6,34.6,29.86,WNW,288,1.0,9.0,39,0.00,,CLR,0.00,VWS V14.01,2013-02-14 20:00:00,
2013-02-14 14:03:00,60.5,34.8,29.86,West,276,4.0,5.0,38,0.00,,CLR,0.00,VWS V14.01,2013-02-14 20:03:00,
2013-02-14 14:08:00,60.0,33.7,29.86,WNW,300,2.0,10.0,37,0.00,,CLR,0.00,VWS V14.01,2013-02-14 20:08:00,
2013-02-14 14:13:00,59.8,34.2,29.87,NNE,20,4.0,14.0,38,0.00,,CLR,0.00,VWS V14.01,2013-02-14 20:13:00,
2013-02-14 14:18:00,59.8,34.8,29.86,West,263,2.0,14.0,39,0.00,,CLR,0.00,VWS V14.01,2013-02-14 20:18:00,
2013-02-14 14:23:00,59.8,34.2,29.86,NW,321,2.0,14.0,38,0.00,,CLR,0.00,VWS V14.01,2013-02-14 20:23:00,
2013-02-14 14:29:00,59.8,34.8,29.86,NNW,329,8.0,14.0,39,0.00,,CLR,0.00,VWS V14.01,2013-02-14 20:29:00,
2013-02-14 14:30:00,58.9,34.6,29.86,WSW,252,5.0,8.0,40,0.00,,CLR,0.00,VWS V14.01,2013-02-14 20:30:00,
2013-02-14 14:34:00,60.1,35.7,29.86,WNW,299,4.0,6.0,40,0.00,,CLR,0.00,VWS V14.01,2013-02-14 20:34:00,
2013-02-14 14:39:00,60.4,36.0,29.86,NW,305,6.0,7.0,40,0.00,,CLR,0.00,VWS V14.01,2013-02-14 20:39:00,
2013-02-14 14:44:00,60.6,34.9,29.86,NNW,332,6.0,9.0,38,0.00,,CLR,0.00,VWS V14.01,2013-02-14 20:44:00,
2013-02-14 14:49:00,60.4,34.7,29.86,WNW,289,1.0,9.0,38,0.00,,CLR,0.00,VWS V14.01,2013-02-14 20:49:00,
2013-02-14 14:54:00,59.8,34.2,29.86,WNW,293,0.0,9.0,38,0.00,,CLR,0.00,VWS V14.01,2013-02-14 20:54:00,
2013-02-14 14:59:00,59.6,34.6,29.86,West,271,3.0,9.0,39,0.00,,CLR,0.00,VWS V14.01,2013-02-14 20:59:00,
2013-02-14 15:00:00,57.5,35.2,29.88,NW,310,2.0,7.0,43,0.00,,CLR,0.00,VWS V14.01,2013-02-14 21:00:00,
2013-02-14 15:04:00,59.6,34.6,29.86,WNW,292,5.0,7.0,39,0.00,,CLR,0.00,VWS V14.01,2013-02-14 21:04:00,
2013-02-14 15:09:00,59.2,34.3,29.86,WNW,301,1.0,7.0,39,0.00,,CLR,0.00,VWS V14.01,2013-02-14 21:09:00,
2013-02-14 15:14:00,59.2,34.9,29.86,WSW,250,2.0,7.0,40,0.00,,CLR,0.00,VWS V14.01,2013-02-14 21:14:00,
2013-02-14 15:19:00,59.1,34.8,29.86,WNW,288,1.0,7.0,40,0.00,,CLR,0.00,VWS V14.01,2013-02-14 21:19:00,
2013-02-14 15:25:00,58.9,34.6,29.86,NW,307,4.0,8.0,40,0.00,,CLR,0.00,VWS V14.01,2013-02-14 21:25:00,
2013-02-14 15:30:00,58.9,34.6,29.86,West,268,4.0,8.0,40,0.00,,CLR,0.00,VWS V14.01,2013-02-14 21:30:00,
2013-02-14 15:35:00,58.7,34.5,29.87,NW,315,1.0,7.0,40,0.00,,CLR,0.00,VWS V14.01,2013-02-14 21:35:00,
2013-02-14 15:40:00,58.6,35.0,29.87,WSW,246,4.0,7.0,41,0.00,,CLR,0.00,VWS V14.01,2013-02-14 21:40:00,
2013-02-14 15:45:00,58.2,34.6,29.87,West,280,5.0,7.0,41,0.00,,CLR,0.00,VWS V14.01,2013-02-14 21:45:00,
2013-02-14 15:50:00,57.7,34.8,29.87,WNW,288,4.0,7.0,42,0.00,,CLR,0.00,VWS V14.01,2013-02-14 21:50:00,
2013-02-14 15:55:00,57.6,35.3,29.88,WNW,291,1.0,7.0,43,0.00,,CLR,0.00,VWS V14.01,2013-02-14 21:55:00,
2013-02-14 16:00:00,57.5,35.2,29.88,WNW,298,2.0,2.0,43,0.00,,CLR,0.00,VWS V14.01,2013-02-14 22:00:00,
2013-02-14 16:05:00,57.3,34.4,29.88,West,269,2.0,7.0,42,0.00,,CLR,0.00,VWS V14.01,2013-02-14 22:05:00,
2013-02-14 16:10:00,57.1,34.8,29.88,WNW,288,4.0,7.0,43,0.00,,CLR,0.00,VWS V14.01,2013-02-14 22:10:00,
2013-02-14 16:15:00,57.0,34.8,29.88,WNW,297,2.0,7.0,43,0.00,,CLR,0.00,VWS V14.01,2013-02-14 22:15:00,
2013-02-14 16:20:00,56.9,34.7,29.89,West,277,2.0,7.0,43,0.00,,CLR,0.00,VWS V14.01,2013-02-14 22:20:00,
2013-02-14 16:26:00,57.0,34.8,29.89,West,270,6.0,7.0,43,0.00,,CLR,0.00,VWS V14.01,2013-02-14 22:26:00,
2013-02-14 16:30:00,55.9,34.9,29.90,NW,309,0.0,9.0,45,0.00,,CLR,0.00,VWS V14.01,2013-02-14 22:30:00,
2013-02-14 16:31:00,57.0,34.8,29.89,NW,319,2.0,5.0,43,0.00,,CLR,0.00,VWS V14.01,2013-02-14 22:31:00,
2013-02-14 16:36:00,56.8,35.1,29.89,NW,306,1.0,5.0,44,0.00,,CLR,0.00,VWS V14.01,2013-02-14 22:36:00,
2013-02-14 16:41:00,56.6,35.0,29.89,West,280,4.0,6.0,44,0.00,,CLR,0.00,VWS V14.01,2013-02-14 22:41:00,
2013-02-14 16:46:00,56.6,35.0,29.89,West,270,2.0,6.0,44,0.00,,CLR,0.00,VWS V14.01,2013-02-14 22:46:00,
2013-02-14 16:51:00,56.4,34.8,29.89,West,280,0.0,7.0,44,0.00,,CLR,0.00,VWS V14.01,2013-02-14 22:51:00,
2013-02-14 16:56:00,56.4,35.3,29.90,West,273,1.0,7.0,45,0.00,,CLR,0.00,VWS V14.01,2013-02-14 22:56:00,
2013-02-14 17:00:00,53.6,33.9,29.91,NW,306,2.0,8.0,47,0.00,,CLR,0.00,VWS V14.01,2013-02-14 23:00:00,
2013-02-14 17:01:00,56.4,34.8,29.90,West,271,4.0,7.0,44,0.00,,CLR,0.00,VWS V14.01,2013-02-14 23:01:00,
2013-02-14 17:06:00,56.6,35.5,29.90,West,281,2.0,7.0,45,0.00,,CLR,0.00,VWS V14.01,2013-02-14 23:06:00,
2013-02-14 17:11:00,56.8,35.1,29.90,West,277,2.0,8.0,44,0.00,,CLR,0.00,VWS V14.01,2013-02-14 23:11:00,
2013-02-14 17:16:00,56.8,35.1,29.90,WNW,290,2.0,9.0,44,0.00,,CLR,0.00,VWS V14.01,2013-02-14 23:16:00,
2013-02-14 17:21:00,56.4,34.8,29.90,West,281,0.0,9.0,44,0.00,,CLR,0.00,VWS V14.01,2013-02-14 23:21:00,
2013-02-14 17:27:00,56.1,35.1,29.90,WNW,296,6.0,9.0,45,0.00,,CLR,0.00,VWS V14.01,2013-02-14 23:27:00,
2013-02-14 17:30:00,51.7,32.7,29.92,WNW,302,0.0,6.0,48,0.00,,CLR,0.00,VWS V14.01,2013-02-14 23:30:00,
2013-02-14 17:32:00,55.8,35.3,29.90,WNW,291,0.0,3.0,46,0.00,,CLR,0.00,VWS V14.01,2013-02-14 23:32:00,
2013-02-14 17:37:00,55.4,34.4,29.90,WNW,285,3.0,7.0,45,0.00,,CLR,0.00,VWS V14.01,2013-02-14 23:37:00,
2013-02-14 17:42:00,54.9,34.5,29.90,NNW,342,3.0,7.0,46,0.00,,CLR,0.00,VWS V14.01,2013-02-14 23:42:00,
2013-02-14 17:47:00,54.5,34.2,29.90,WNW,292,2.0,8.0,46,0.00,,CLR,0.00,VWS V14.01,2013-02-14 23:47:00,
2013-02-14 17:52:00,54.2,34.4,29.90,NW,319,2.0,8.0,47,0.00,,CLR,0.00,VWS V14.01,2013-02-14 23:52:00,
2013-02-14 17:57:00,53.8,34.1,29.91,WNW,302,2.0,8.0,47,0.00,,CLR,0.00,VWS V14.01,2013-02-14 23:57:00,
2013-02-14 18:00:00,50.0,32.1,29.93,NW,323,0.0,5.0,50,0.00,,CLR,0.00,VWS V14.01,2013-02-15 00:00:00,
2013-02-14 18:02:00,53.4,34.2,29.91,NW,314,4.0,4.0,48,0.00,,CLR,0.00,VWS V14.01,2013-02-15 00:02:00,
2013-02-14 18:07:00,53.0,33.8,29.91,WNW,290,3.0,4.0,48,0.00,,CLR,0.00,VWS V14.01,2013-02-15 00:07:00,
2013-02-14 18:12:00,52.7,34.1,29.91,NW,324,0.0,4.0,49,0.00,,CLR,0.00,VWS V14.01,2013-02-15 00:12:00,
2013-02-14 18:17:00,52.4,33.3,29.91,North,355,2.0,5.0,48,0.00,,CLR,0.00,VWS V14.01,2013-02-15 00:17:00,
2013-02-14 18:23:00,52.1,33.0,29.92,NW,323,2.0,6.0,48,0.00,,CLR,0.00,VWS V14.01,2013-02-15 00:23:00,
2013-02-14 18:28:00,51.9,32.8,29.92,NW,316,0.0,6.0,48,0.00,,CLR,0.00,VWS V14.01,2013-02-15 00:28:00,
2013-02-14 18:30:00,49.2,32.3,29.93,NW,313,1.0,6.0,52,0.00,,CLR,0.00,VWS V14.01,2013-02-15 00:30:00,
2013-02-14 18:33:00,51.6,32.6,29.92,NW,321,0.0,3.0,48,0.00,,CLR,0.00,VWS V14.01,2013-02-15 00:33:00,
2013-02-14 18:38:00,51.3,32.8,29.92,NW,317,1.0,3.0,49,0.00,,CLR,0.00,VWS V14.01,2013-02-15 00:38:00,
2013-02-14 18:43:00,51.0,32.5,29.92,NW,317,0.0,3.0,49,0.00,,CLR,0.00,VWS V14.01,2013-02-15 00:43:00,
2013-02-14 18:48:00,50.7,32.8,29.92,NNW,333,1.0,3.0,50,0.00,,CLR,0.00,VWS V14.01,2013-02-15 00:48:00,
2013-02-14 18:53:00,50.3,32.4,29.93,WNW,301,0.0,5.0,50,0.00,,CLR,0.00,VWS V14.01,2013-02-15 00:53:00,
2013-02-14 18:58:00,50.1,32.7,29.93,NW,311,1.0,5.0,51,0.00,,CLR,0.00,VWS V14.01,2013-02-15 00:58:00,
2013-02-14 19:00:00,48.2,31.4,29.94,NNW,333,3.0,8.0,52,0.00,,CLR,0.00,VWS V14.01,2013-02-15 01:00:00,
2013-02-14 19:03:00,49.9,32.5,29.93,NW,309,1.0,2.0,51,0.00,,CLR,0.00,VWS V14.01,2013-02-15 01:03:00,
2013-02-14 19:08:00,49.7,32.3,29.93,NNW,329,1.0,4.0,51,0.00,,CLR,0.00,VWS V14.01,2013-02-15 01:08:00,
2013-02-14 19:13:00,49.5,31.6,29.93,WNW,303,2.0,6.0,50,0.00,,CLR,0.00,VWS V14.01,2013-02-15 01:13:00,
2013-02-14 19:18:00,49.5,32.1,29.93,NNW,331,1.0,6.0,51,0.00,,CLR,0.00,VWS V14.01,2013-02-15 01:18:00,
2013-02-14 19:24:00,49.4,32.0,29.93,NW,320,2.0,6.0,51,0.00,,CLR,0.00,VWS V14.01,2013-02-15 01:24:00,
2013-02-14 19:29:00,49.2,31.9,29.93,NNW,329,0.0,6.0,51,0.00,,CLR,0.00,VWS V14.01,2013-02-15 01:29:00,
2013-02-14 19:30:00,47.3,31.0,29.95,NNW,327,5.0,6.0,53,0.00,,CLR,0.00,VWS V14.01,2013-02-15 01:30:00,
2013-02-14 19:34:00,49.0,31.7,29.93,NNW,329,1.0,5.0,51,0.00,,CLR,0.00,VWS V14.01,2013-02-15 01:34:00,
2013-02-14 19:39:00,48.9,32.1,29.93,NNW,327,3.0,5.0,52,0.00,,CLR,0.00,VWS V14.01,2013-02-15 01:39:00,
2013-02-14 19:44:00,48.7,31.9,29.94,NW,310,1.0,5.0,52,0.00,,CLR,0.00,VWS V14.01,2013-02-15 01:44:00,
2013-02-14 19:49:00,48.5,31.7,29.94,WNW,291,1.0,8.0,52,0.00,,CLR,0.00,VWS V14.01,2013-02-15 01:49:00,
2013-02-14 19:54:00,48.4,31.6,29.94,NW,315,3.0,8.0,52,0.00,,CLR,0.00,VWS V14.01,2013-02-15 01:54:00,
2013-02-14 19:59:00,48.3,31.5,29.94,NW,308,3.0,8.0,52,0.00,,CLR,0.00,VWS V14.01,2013-02-15 01:59:00,
2013-02-14 20:00:00,46.5,31.2,29.96,NW,316,3.0,8.0,55,0.00,,CLR,0.00,VWS V14.01,2013-02-15 02:00:00,
2013-02-14 20:04:00,48.1,31.3,29.94,NW,319,1.0,6.0,52,0.00,,CLR,0.00,VWS V14.01,2013-02-15 02:04:00,
2013-02-14 20:09:00,47.9,31.1,29.94,WNW,296,3.0,6.0,52,0.00,,CLR,0.00,VWS V14.01,2013-02-15 02:09:00,
2013-02-14 20:14:00,47.7,31.4,29.94,WNW,287,6.0,6.0,53,0.00,,CLR,0.00,VWS V14.01,2013-02-15 02:14:00,
2013-02-14 20:20:00,47.6,30.9,29.94,NW,325,3.0,6.0,52,0.00,,CLR,0.00,VWS V14.01,2013-02-15 02:20:00,
2013-02-14 20:25:00,47.4,31.1,29.94,NW,304,2.0,6.0,53,0.00,,CLR,0.00,VWS V14.01,2013-02-15 02:25:00,
2013-02-14 20:30:00,47.3,31.0,29.95,NW,313,2.0,6.0,53,0.00,,CLR,0.00,VWS V14.01,2013-02-15 02:30:00,
2013-02-14 20:35:00,47.2,31.0,29.95,NW,309,3.0,7.0,53,0.00,,CLR,0.00,VWS V14.01,2013-02-15 02:35:00,
2013-02-14 20:40:00,47.0,30.8,29.95,NW,308,2.0,7.0,53,0.00,,CLR,0.00,VWS V14.01,2013-02-15 02:40:00,
2013-02-14 20:45:00,46.9,31.1,29.95,NW,309,3.0,8.0,54,0.00,,CLR,0.00,VWS V14.01,2013-02-15 02:45:00,
2013-02-14 20:50:00,46.8,31.0,29.95,NNW,327,3.0,8.0,54,0.00,,CLR,0.00,VWS V14.01,2013-02-15 02:50:00,
2013-02-14 20:55:00,46.7,31.4,29.96,NW,324,4.0,8.0,55,0.00,,CLR,0.00,VWS V14.01,2013-02-15 02:55:00,
2013-02-14 21:00:00,46.5,31.2,29.96,WNW,302,3.0,3.0,55,0.00,,CLR,0.00,VWS V14.01,2013-02-15 03:00:00,
2013-02-14 21:05:00,46.4,31.1,29.96,NW,306,1.0,6.0,55,0.00,,CLR,0.00,VWS V14.01,2013-02-15 03:05:00,
2013-02-14 21:11:00,46.4,31.1,29.96,WNW,296,7.0,9.0,55,0.00,,CLR,0.00,VWS V14.01,2013-02-15 03:11:00,
2013-02-14 21:16:00,46.4,31.6,29.97,NW,311,3.0,9.0,56,0.00,,CLR,0.00,VWS V14.01,2013-02-15 03:16:00,
2013-02-14 21:21:00,46.4,31.6,29.97,NW,305,5.0,9.0,56,0.00,,CLR,0.00,VWS V14.01,2013-02-15 03:21:00,
2013-02-14 21:26:00,46.5,31.7,29.97,NW,318,3.0,9.0,56,0.00,,CLR,0.00,VWS V14.01,2013-02-15 03:26:00,
2013-02-14 21:30:00,46.4,31.1,29.98,NW,313,3.0,9.0,55,0.00,,CLR,0.00,VWS V14.01,2013-02-15 03:30:00,
2013-02-14 21:31:00,46.5,31.7,29.97,NNW,333,2.0,5.0,56,0.00,,CLR,0.00,VWS V14.01,2013-02-15 03:31:00,
2013-02-14 21:36:00,46.5,31.2,29.98,NW,304,6.0,7.0,55,0.00,,CLR,0.00,VWS V14.01,2013-02-15 03:36:00,
2013-02-14 21:41:00,46.4,31.6,29.97,NW,313,1.0,10.0,56,0.00,,CLR,0.00,VWS V14.01,2013-02-15 03:41:00,
2013-02-14 21:46:00,46.3,31.5,29.98,NW,312,2.0,10.0,56,0.00,,CLR,0.00,VWS V14.01,2013-02-15 03:46:00,
2013-02-14 21:51:00,46.1,31.7,29.98,WNW,290,3.0,10.0,57,0.00,,CLR,0.00,VWS V14.01,2013-02-15 03:51:00,
2013-02-14 21:56:00,46.0,31.6,29.98,NW,309,8.0,10.0,57,0.00,,CLR,0.00,VWS V14.01,2013-02-15 03:56:00,
2013-02-14 22:00:00,45.8,31.9,29.99,WNW,303,1.0,10.0,58,0.00,,CLR,0.00,VWS V14.01,2013-02-15 04:00:00,
2013-02-14 22:02:00,46.0,31.6,29.98,WNW,294,4.0,5.0,57,0.00,,CLR,0.00,VWS V14.01,2013-02-15 04:02:00,
2013-02-14 22:07:00,46.0,31.2,29.98,NW,325,6.0,8.0,56,0.00,,CLR,0.00,VWS V14.01,2013-02-15 04:07:00,
2013-02-14 22:12:00,46.1,31.3,29.98,WNW,299,3.0,8.0,56,0.00,,CLR,0.00,VWS V14.01,2013-02-15 04:12:00,
2013-02-14 22:17:00,46.2,30.9,29.98,NNW,348,3.0,9.0,55,0.00,,CLR,0.00,VWS V14.01,2013-02-15 04:17:00,
2013-02-14 22:22:00,46.3,31.0,29.98,NW,307,8.0,9.0,55,0.00,,CLR,0.00,VWS V14.01,2013-02-15 04:22:00,
2013-02-14 22:27:00,46.4,31.1,29.98,NW,311,2.0,9.0,55,0.00,,CLR,0.00,VWS V14.01,2013-02-15 04:27:00,
2013-02-14 22:30:00,44.8,31.8,30.00,NW,304,3.0,8.0,60,0.00,,CLR,0.00,VWS V14.01,2013-02-15 04:30:00,
2013-02-14 22:33:00,46.3,31.0,29.98,NNW,329,3.0,7.0,55,0.00,,CLR,0.00,VWS V14.01,2013-02-15 04:33:00,
2013-02-14 22:38:00,46.2,30.9,29.99,NNW,331,4.0,9.0,55,0.00,,CLR,0.00,VWS V14.01,2013-02-15 04:38:00,
2013-02-14 22:43:00,46.2,31.4,29.99,NW,325,6.0,10.0,56,0.00,,CLR,0.00,VWS V14.01,2013-02-15 04:43:00,
2013-02-14 22:48:00,46.1,31.3,29.99,NW,316,3.0,10.0,56,0.00,,CLR,0.00,VWS V14.01,2013-02-15 04:48:00,
2013-02-14 22:53:00,46.0,31.6,29.99,WNW,292,1.0,10.0,57,0.00,,CLR,0.00,VWS V14.01,2013-02-15 04:53:00,
2013-02-14 22:58:00,45.8,31.5,29.99,NNW,342,5.0,10.0,57,0.00,,CLR,0.00,VWS V14.01,2013-02-15 04:58:00,
2013-02-14 23:00:00,45.8,31.9,29.99,NW,310,2.0,10.0,58,0.00,,CLR,0.00,VWS V14.01,2013-02-15 05:00:00,
2013-02-14 23:01:00,45.7,31.8,29.99,NW,313,2.0,3.0,58,0.00,,CLR,0.00,VWS V14.01,2013-02-15 05:01:00,
2013-02-14 23:06:00,45.5,31.6,29.99,NW,307,2.0,8.0,58,0.00,,CLR,0.00,VWS V14.01,2013-02-15 05:06:00,
2013-02-14 23:11:00,45.4,31.5,30.00,NW,307,2.0,8.0,58,0.00,,CLR,0.00,VWS V14.01,2013-02-15 05:11:00,
2013-02-14 23:16:00,45.2,31.7,29.99,NW,304,2.0,8.0,59,0.00,,CLR,0.00,VWS V14.01,2013-02-15 05:16:00,
2013-02-14 23:21:00,45.1,31.6,30.00,NW,306,3.0,8.0,59,0.00,,CLR,0.00,VWS V14.01,2013-02-15 05:21:00,
2013-02-14 23:26:00,44.9,31.9,30.00,WNW,290,1.0,8.0,60,0.00,,CLR,0.00,VWS V14.01,2013-02-15 05:26:00,
2013-02-14 23:30:00,44.0,31.8,30.00,NW,304,3.0,9.0,62,0.00,,CLR,0.00,VWS V14.01,2013-02-15 05:30:00,
2013-02-14 23:32:00,44.7,31.7,29.99,WNW,300,2.0,6.0,60,0.00,,CLR,0.00,VWS V14.01,2013-02-15 05:32:00,
2013-02-14 23:37:00,44.7,31.7,29.99,NNW,333,7.0,8.0,60,0.00,,CLR,0.00,VWS V14.01,2013-02-15 05:37:00,
2013-02-14 23:42:00,44.7,31.7,29.99,NW,317,3.0,11.0,60,0.00,,BKN110,0.00,VWS V14.01,2013-02-15 05:42:00,
2013-02-14 23:47:00,44.6,31.6,29.99,NW,313,4.0,11.0,60,0.00,,BKN110,0.00,VWS V14.01,2013-02-15 05:47:00,
2013-02-14 23:52:00,44.5,31.5,29.99,NW,311,1.0,11.0,60,0.00,,BKN110,0.00,VWS V14.01,2013-02-15 05:52:00,
2013-02-14 23:57:00,44.5,31.5,29.99,NW,312,4.0,11.0,60,0.00,,BKN110,0.00,VWS V14.01,2013-02-15 05:57:00,